Date String (YYYY-MM-DD hh:mm:ss) UTC,Instrument flags,Ambient pressure (hPa),Sample flow (lpm),Bypass flow (lpm),Sample temperature (°C),Ambient temperature (°C),ASC tube jacket temperature (°C),LED temperature (°C),Box temperature (°C),Sample RH (%),Span deviation,Mass concentration (μg/m³),Mass concentration (μg/m³),Mass concentration (μg/m³)
DateTimeUTC,F1_M11,P_M11,Q1_M11,Q2_M11,T1_M11,T2_M11,T3_M11,T4_M11,T5_M11,U1_M11,ZSPAN_M11,X2_M11,X0_M11,X1_M11
2023-01-15 04:00:00,,0815.1,5.00,0.00,24.7,23.3,00.0,33.7,26.4,11.4,0000.0,0000.65,0001.06,0000.50
2023-01-15 04:01:00,,0815.0,5.00,0.00,24.7,23.3,00.0,33.7,26.4,11.4,0000.0,0000.66,0001.06,0000.51
2023-01-15 04:02:00,,0815.0,5.01,0.00,24.7,23.4,00.0,33.7,26.5,11.4,0000.0,0000.68,0001.12,0000.50
2023-01-15 04:03:00,,0815.1,5.00,0.00,24.7,23.4,00.0,33.7,26.5,11.3,0000.0,0000.66,0001.07,0000.49
2023-01-15 04:04:00,,0815.2,5.00,0.00,24.8,23.4,00.0,33.7,26.5,11.3,0000.0,0000.66,0001.05,0000.49
2023-01-15 04:05:00,,0815.2,5.00,0.00,24.7,23.4,00.0,33.7,26.5,11.4,0000.0,0000.67,0001.14,0000.49
2023-01-15 04:06:00,,0815.1,5.00,0.00,24.7,23.3,00.0,33.7,26.4,11.3,0000.0,0000.68,0001.21,0000.49
2023-01-15 04:07:00,,0815.1,5.01,0.00,24.7,23.2,00.0,33.7,26.3,11.3,0000.0,0000.69,0001.32,0000.50
2023-01-15 04:08:00,,0815.0,5.00,0.00,24.6,23.1,00.0,33.6,26.3,11.3,0000.0,0000.69,0001.40,0000.50
2023-01-15 04:09:00,,0814.9,4.97,0.00,24.6,22.9,00.0,33.6,26.2,11.4,0000.0,0000.66,0001.33,0000.49
2023-01-15 04:10:00,,0815.0,4.99,0.00,24.6,22.7,00.0,33.6,26.2,11.5,0000.0,0000.67,0001.33,0000.49
2023-01-15 04:11:00,,0815.4,5.01,0.00,24.5,22.6,00.0,33.6,26.1,11.5,0000.0,0000.67,0001.34,0000.49
2023-01-15 04:12:00,,0814.9,5.02,0.00,24.5,22.6,00.0,33.6,26.1,11.5,0000.0,0000.66,0001.33,0000.49
2023-01-15 04:13:00,,0815.2,5.01,0.00,24.4,22.6,00.0,33.5,26.0,11.5,0000.0,0000.65,0001.28,0000.50
2023-01-15 04:14:00,,0815.1,4.99,0.00,24.4,22.5,00.0,33.5,26.0,11.6,0000.0,0000.66,0001.34,0000.51
2023-01-15 04:15:00,,0815.1,5.00,0.00,24.4,22.4,00.0,33.5,26.0,11.7,0000.0,0000.66,0001.41,0000.51
2023-01-15 04:16:00,,0815.0,5.00,0.00,24.3,22.5,00.0,33.5,25.9,11.8,0000.0,0000.65,0002.02,0000.52
2023-01-15 04:17:00,,0815.0,5.00,0.00,24.3,22.5,00.0,33.4,25.9,11.8,0000.0,0000.64,0002.72,0000.52
2023-01-15 04:18:00,,0815.1,5.02,0.00,24.3,22.6,00.0,33.4,26.0,11.8,0000.0,0000.63,0002.60,0000.51
2023-01-15 04:19:00,,0815.0,4.99,0.00,24.3,22.7,00.0,33.4,26.0,11.8,0000.0,0000.62,0002.46,0000.51
2023-01-15 04:20:00,,0814.9,5.02,0.00,24.3,22.7,00.0,33.4,25.9,11.7,0000.0,0000.63,0002.48,0000.51
2023-01-15 04:21:00,,0814.9,5.00,0.00,24.2,22.6,00.0,33.3,25.9,11.8,0000.0,0000.63,0002.47,0000.53
2023-01-15 04:22:00,,0814.9,5.00,0.00,24.2,22.6,00.0,33.3,25.9,11.8,0000.0,0000.66,0002.56,0000.54
2023-01-15 04:23:00,,0814.9,4.97,0.00,24.2,22.6,00.0,33.3,25.8,11.9,0000.0,0000.70,0002.76,0000.55
2023-01-15 04:24:00,,0815.1,4.99,0.00,24.2,22.5,00.0,33.3,25.7,11.8,0000.0,0000.70,0002.74,0000.56
2023-01-15 04:25:00,,0814.9,5.00,0.00,24.2,22.4,00.0,33.3,25.7,11.9,0000.0,0000.70,0002.69,0000.56
2023-01-15 04:26:00,,0814.9,5.00,0.00,24.1,22.3,00.0,33.2,25.6,11.9,0000.0,0000.71,0002.61,0000.57
2023-01-15 04:27:00,,0814.9,4.99,0.00,24.1,22.1,00.0,33.2,25.6,12.0,0000.0,0000.73,0002.07,0000.59
2023-01-15 04:28:00,,0814.8,5.00,0.00,24.0,22.0,00.0,33.2,25.6,12.1,0000.0,0000.75,0001.30,0000.60
2023-01-15 04:29:00,,0814.8,5.00,0.00,24.0,22.0,00.0,33.2,25.5,12.1,0000.0,0000.78,0001.34,0000.61
2023-01-15 04:30:00,,0814.8,5.01,0.00,24.0,21.9,00.0,33.1,25.5,12.1,0000.0,0000.81,0001.47,0000.63
2023-01-15 04:31:00,,0814.9,5.01,0.00,23.9,21.9,00.0,33.1,25.5,12.2,0000.0,0000.84,0001.56,0000.66
2023-01-15 04:32:00,,0815.0,4.99,0.00,23.9,21.9,00.0,33.1,25.5,12.2,0000.0,0000.85,0001.58,0000.67
2023-01-15 04:33:00,,0814.8,5.00,0.00,23.9,22.1,00.0,33.0,25.5,12.3,0000.0,0000.85,0001.56,0000.69
2023-01-15 04:34:00,,0814.6,4.99,0.00,23.9,22.3,00.0,33.0,25.5,12.4,0000.0,0000.84,0001.41,0000.70
2023-01-15 04:35:00,,0814.7,4.99,0.00,23.9,22.4,00.0,33.0,25.6,12.4,0000.0,0000.88,0001.47,0000.71
2023-01-15 04:36:00,,0814.7,5.00,0.00,24.0,22.5,00.0,33.0,25.6,12.3,0000.0,0000.89,0001.49,0000.73
2023-01-15 04:37:00,,0815.1,5.00,0.00,24.0,22.6,00.0,33.0,25.7,12.2,0000.0,0000.88,0001.45,0000.73
2023-01-15 04:38:00,,0815.1,5.00,0.00,24.0,22.7,00.0,33.0,25.7,12.1,0000.0,0000.87,0001.41,0000.73
2023-01-15 04:39:00,,0814.9,5.01,0.00,24.0,22.8,00.0,33.0,25.7,12.1,0000.0,0000.86,0001.28,0000.75
2023-01-15 04:40:00,,0815.0,4.99,0.00,24.0,22.8,00.0,33.0,25.8,12.2,0000.0,0000.88,0001.33,0000.76
2023-01-15 04:41:00,,0815.1,5.00,0.00,24.1,22.9,00.0,33.0,25.9,12.4,0000.0,0000.93,0001.36,0000.77
2023-01-15 04:42:00,,0814.8,5.00,0.00,24.1,22.9,00.0,33.0,25.9,12.2,0000.0,0000.96,0001.41,0000.79
2023-01-15 04:43:00,,0814.6,5.01,0.00,24.1,22.9,00.0,33.0,25.9,12.2,0000.0,0000.99,0001.55,0000.81
2023-01-15 04:44:00,,0815.0,5.00,0.00,24.1,22.9,00.0,33.0,25.9,12.2,0000.0,0001.02,0001.61,0000.83
2023-01-15 04:45:00,,0815.1,5.00,0.00,24.1,22.9,00.0,33.0,25.9,12.0,0000.0,0001.03,0001.62,0000.84
2023-01-15 04:46:00,,0815.0,5.00,0.00,24.1,22.7,00.0,33.0,25.9,12.0,0000.0,0001.02,0001.59,0000.85
2023-01-15 04:47:00,,0815.0,4.99,0.00,24.1,22.6,00.0,33.0,25.8,12.0,0000.0,0001.03,0001.61,0000.85
2023-01-15 04:48:00,,0815.0,4.99,0.00,24.1,22.6,00.0,33.0,25.7,12.1,0000.0,0001.08,0001.72,0000.87
2023-01-15 04:49:00,,0815.1,5.01,0.00,24.1,22.6,00.0,33.0,25.7,12.1,0000.0,0001.11,0001.78,0000.89
2023-01-15 04:50:00,,0815.0,4.99,0.00,24.1,22.7,00.0,33.0,25.7,12.0,0000.0,0001.16,0002.43,0000.92
2023-01-15 04:51:00,,0815.1,5.00,0.00,24.1,22.7,00.0,33.0,25.9,12.2,0000.0,0001.18,0002.55,0000.93
2023-01-15 04:52:00,,0815.1,5.00,0.00,24.1,22.8,00.0,33.0,25.9,12.0,0000.0,0001.14,0002.45,0000.92
2023-01-15 04:53:00,,0815.2,4.99,0.00,24.1,22.8,00.0,33.0,25.8,12.0,0000.0,0001.10,0002.37,0000.92
2023-01-15 04:54:00,,0815.0,5.01,0.00,24.1,22.7,00.0,33.0,25.7,12.0,0000.0,0001.08,0002.21,0000.90
2023-01-15 04:55:00,,0814.7,5.01,0.00,24.1,22.7,00.0,33.0,25.7,12.0,0000.0,0001.10,0002.22,0000.91
2023-01-15 04:56:00,,0815.3,5.00,0.00,24.1,22.7,00.0,33.0,25.8,12.0,0000.0,0001.11,0002.26,0000.92
2023-01-15 04:57:00,,0814.7,5.00,0.00,24.1,22.8,00.0,33.0,25.9,12.0,0000.0,0001.12,0002.27,0000.92
2023-01-15 04:58:00,,0815.1,4.99,0.00,24.1,22.7,00.0,33.0,25.9,12.0,0000.0,0001.13,0002.29,0000.92
2023-01-15 04:59:00,,0815.2,5.00,0.00,24.1,22.7,00.0,33.0,25.8,12.1,0000.0,0001.11,0002.21,0000.92
